Regional Weather Roundup
Issued by NWS Midland/Odessa, TX

Home | Current Version | Previous Version | Text Only | Print | Product List | Glossary On
Versions: 1 2 3 4 5 6 7 8 9 10 11 12 13 14 15 16 17 18 19 20 21 22 23 24 25 26 27 28 29 30 31 32 33 34 35 36 37 38 39 40 41 42 43 44 45 46 47 48 49 50
344
ASUS44 KMAF 271010
RWRMAF
MIDLAND AREA WEATHER ROUNDUP
NATIONAL WEATHER SERVICE MIDLAND TX
500 AM CDT MON MAR 27 2017

...IN SOUTHWEST TEXAS AND SOUTHEAST NEW MEXICO...

CITY           SKY/WX    TMP DP  RH WIND       PRES   REMARKS
ALPINE         CLEAR     48  23  37 SW3       30.04S
ANDREWS        FAIR      46  35  65 N6        29.96R
ARTESIA        CLEAR     46  21  36 NW12      29.94S
BIG SPRING     CLEAR     53  35  51 N8        29.94S
CARLSBAD       CLEAR     48  17  29 W7        29.91S
DRYDEN           N/A     58  25  28 W8        29.87S
FORT STOCKTON  CLEAR     58  24  27 SW10      29.91S
GUAD PASS        N/A    N/A N/A N/A MISG        N/A
HOBBS          CLEAR     45  34  65 N13       29.95F WCI  38
MARFA          CLEAR     40  19  43 NW7       30.03S WCI  35
MIDLAND AIRPK  CLEAR     53  36  53 N8        29.94R
MIDLAND INTL   CLEAR     50  33  52 N9        29.93R
ODESSA           N/A    N/A N/A N/A MISG      29.93R
PECOS          CLEAR     52  24  33 NW3       29.91S
PRESIDIO       FAIR      61  23  23 N6        29.95S
SEMINOLE       CLEAR     46  35  67 CALM      29.96S
SNYDER         CLEAR     49  38  66 NE7G21    29.94S
WINK           CLEAR     47  21  35 N6        29.91R
$$
...OTHER STATIONS IN TEXAS...

CITY           SKY/WX    TMP DP  RH WIND       PRES   REMARKS
ABILENE        CLEAR     51  44  77 N12       29.90R
AMARILLO       CLEAR     38  36  92 NW15      29.95F WCI  29
AUSTIN         MOCLDY    70  66  87 S12       29.82F
BROWNSVILLE    CLOUDY    73  70  90 SE7       29.77F
CORPUS CHRISTI MOCLDY    72  70  93 SE10      29.80S
DALLAS FTW     CLOUDY    70  64  81 SW12      29.79R
DEL RIO        CLOUDY    71  66  84 NE6       29.83S
EL PASO        CLEAR     59  18  20 S8        29.96F
HOUSTON INT    CLOUDY    72  69  90 CALM      29.86S
LUBBOCK        CLEAR     42  36  79 N12       29.94S WCI  36
SAN ANGELO     CLEAR     44  32  62 E3        29.87R
SAN ANTONIO    CLOUDY    70  66  87 SE7       29.85R
WACO           MOCLDY    67  65  93 S13       29.80F
WICHITA FALLS  NOT AVBL
$$
...OTHER LOCATIONS IN NEW MEXICO...

CITY           SKY/WX    TMP DP  RH WIND       PRES   REMARKS
ALAMAGORDO     CLEAR     45  16  31 E3        29.97S
ALBUQUERQUE    PTCLDY    39  23  52 E7        30.01F WCI  34
CANNON AFB     CLEAR     39  39 100 NW3       29.98S
CLOVIS         CLEAR     37  30  75 N8        29.98R WCI  31
HOLLOMAN AFB   CLEAR     46  17  31 SE5       29.99F
ROSWELL        CLEAR     47  30  51 NE6         N/A
RUIDOSO        CLOUDY    43  16  33 W5        30.06S
SANTA FE       CLOUDY    30  24  78 N5        30.01S WCI  25
TRUTH OR CONSE CLEAR     49  19  30 CALM      29.98F
TUCUMCARI      CLEAR     38  32  79 W5        29.98R WCI  34
$$




USA.gov is the U.S. government's official web portal to all federal, state and local government web resources and services.